SCP
-0 -0 0 0 -0 0 0 0 0 0 0 0 0 0 0 -0 0 0 0 0 0 0 0 0 1 1 1 1 1 0 0 0 0 0 0 0 0 0 0 0 0 0 0 0
0 0 0 0 -0 0 0 0 0 0 0 0 0 0 0 0 0 0 0 0 0 0 0 0 0 0 0 1 1 0 0 0 0 0 0 0 0 0 0 0 0 0 0 0
0 0 0 0 0 0 0 0 0 0 0 0 0 0 0 0 0 0 0 0 0 0 0 1 0 0 0 1 0 0 0 0 0 0 0 0 0 0 0 0 0 0 0 0
0 0 0 0 0 0 0 0 0 0 0 0 0 0 0 0 0 0 0 0 0 0 0 1 0 0 0 0 0 0 0 0 0 0 0 0 0 0 0 0 0 0 0 0
0 -0 0 0 0 1 0 0 0 0 0 0 0 0 0 -0 -0 0 0 0 0 0 0 1 0 0 0 0 0 0 0 0 0 0 0 0 0 0 0 0 0 0 0 -0
0 0 0 0 0 0 -0 0 0 0 0 0 0 0 0 0 0 0 0 0 0 0 0 1 0 0 0 0 0 0 0 0 0 0 0 0 0 0 0 0 0 0 0 0
0 0 0 0 0 0 0 1 0 0 0 0 0 0 0 0 0 0 0 0 0 0 0 1 0 0 0 0 0 0 0 0 0 0 0 0 0 0 0 0 0 0 0 0
-0 0 0 0 0 0 1 1 0 0 0 0 0 0 0 0 0 0 0 0 0 0 0 0 0 0 0 0 0 0 0 0 0 0 0 0 0 0 0 0 0 0 0 -0
0 0 0 0 0 0 0 0 0 0 0 0 0 0 0 0 0 0 0 0 0 0 0 0 0 0 0 0 0 0 0 0 0 0 0 0 0 0 0 0 0 0 0 0
0 0 0 0 0 0 0 0 0 0 0 0 0 0 0 0 0 0 0 0 0 0 0 0 0 0 0 0 0 0 0 0 0 0 0 0 0 0 -0 -0 0 0 0 0
0 0 0 0 0 0 0 0 0 0 0 0 0 0 0 0 0 0 0 0 0 0 0 0 0 0 0 0 0 0 0 0 0 0 0 0 0 0 0 -0 0 0 0 0
0 0 0 0 0 0 0 0 0 0 0 0 0 0 0 0 0 0 0 0 0 0 0 0 0 0 0 0 0 0 0 0 0 0 0 0 0 0 0 0 0 0 0 0
0 0 0 0 0 0 0 0 0 0 0 0 0 0 0 0 0 0 0 0 0 0 0 0 0 0 0 0 0 0 0 0 0 0 0 0 0 0 0 0 0 0 0 0
0 0 0 0 0 0 0 0 0 0 0 0 0 0 0 0 0 0 0 0 0 0 0 0 0 0 0 0 0 0 0 0 0 0 0 0 0 0 0 0 0 0 0 0
0 0 0 0 0 0 0 0 0 0 0 0 0 0 0 0 0 0 0 0 0 0 0 0 0 0 0 0 0 0 0 0 0 0 0 0 0 0 0 0 0 0 0 0
0 0 0 0 0 0 0 0 0 0 0 0 0 0 0 0 0 0 0 0 0 0 0 0 0 0 0 0 0 0 0 0 0 0 0 0 0 0 0 0 0 0 0 0
0 0 0 0 0 0 0 0 0 0 0 0 0 0 0 0 0 0 0 0 0 0 0 0 0 0 0 0 0 0 0 0 0 0 0 0 0 0 0 0 0 0 0 0
0 0 0 0 0 0 0 0 0 0 0 0 0 0 0 0 0 0 0 0 0 0 0 0 0 0 0 0 0 0 0 0 0 0 0 -0 -0 0 0 0 0 0 0 0
0 0 0 0 0 0 0 0 0 0 0 0 0 0 0 0 0 0 0 0 0 0 0 0 0 0 0 0 0 0 0 0 0 0 0 0 0 0 0 0 0 0 0 0
0 0 0 0 0 0 0 0 0 0 0 0 0 0 0 0 0 0 0 0 0 0 0 0 0 0 0 0 0 0 0 0 -0 0 0 -0 0 0 -0 0 -0 -0 0 -0
0 0 0 0 0 0 0 0 0 0 0 0 0 0 0 0 0 0 0 0 0 0 0 0 0 0 0 0 0 0 0 0 0 -0 -0 -0 0 -0 0 0 0 -0 -0 -0
0 0 0 0 0 0 0 0 0 0 0 0 0 0 0 0 0 0 0 0 0 0 0 0 0 0 0 0 0 0 0 0 0 -0 0 0 -0 -0 0 0 0 0 -0 0
0 0 0 0 0 1 0 0 0 0 0 0 0 0 0 0 0 0 0 0 0 0 0 0 0 0 0 0 0 0 0 0 0 0 0 0 0 0 0 0 0 0 0 0
0 0 0 0 1 0 0 0 0 0 0 0 0 0 0 0 0 0 0 0 0 0 0 0 0 0 0 0 0 0 0 0 0 0 0 0 0 0 0 0 0 0 0 0
0 0 0 0 0 0 1 0 0 0 0 0 0 0 0 0 0 0 0 0 0 0 0 0 0 0 0 0 0 0 0 0 0 0 0 0 0 0 0 0 0 0 0 0
0 0 0 0 0 0 0 0 0 0 0 0 0 0 0 0 0 0 0 0 0 0 0 0 0 0 0 0 0 0 0 0 0 0 0 0 0 0 0 0 0 0 0 0
0 0 0 0 0 0 0 0 0 0 0 0 0 0 0 0 0 0 0 0 0 0 0 0 0 0 0 0 0 0 0 0 0 0 0 0 0 0 0 0 0 0 0 0
Wind_Speed_500mb
36 37 25 18 35 18 20 20 14 21 28 29 25 6 20 17 40 58 47 47 47 45 46 46 46 44 42 34 31 27 27 32 34 29 35 49 42 47 47 40 28 28 25 20
18 30 17 33 44 29 15 10 15 26 21 27 33 53 67 65 61 52 45 43 43 47 50 48 40 41 37 27 24 27 27 30 28 42 40 40 37 38 43 32 24 23 25 22
19 17 3 7 17 15 18 20 21 21 27 36 30 34 46 47 47 43 38 41 45 46 48 39 39 36 29 23 25 28 30 25 37 37 32 31 32 35 35 31 27 27 28 23
19 25 28 13 13 23 18 14 20 24 16 11 27 35 34 27 29 20 23 35 37 43 41 33 34 29 22 23 24 29 25 28 33 30 29 30 32 36 32 30 30 28 26 23
16 23 22 18 28 25 29 18 24 19 26 44 21 29 23 20 15 13 23 29 35 37 37 32 29 25 22 26 27 25 25 27 30 28 27 28 29 27 29 27 25 26 25 25
18 19 28 9 5 20 34 6 21 20 14 16 24 12 18 17 17 20 26 31 36 35 34 30 26 22 26 25 26 22 26 26 30 24 25 29 28 27 25 27 26 25 26 31
20 5 15 29 7 15 17 7 14 19 21 23 18 18 12 14 20 22 30 33 35 35 29 24 23 23 24 24 22 22 26 22 31 24 24 24 27 24 25 25 28 26 28 34
19 1 8 6 10 11 8 13 10 8 13 12 8 6 12 19 23 26 29 32 32 34 24 23 19 21 25 22 20 25 23 23 30 29 27 27 29 25 23 21 24 31 30 26
3 8 7 12 20 10 10 12 9 8 10 4 3 14 17 23 25 25 28 30 29 30 25 21 18 24 21 20 20 23 24 23 34 24 24 27 28 25 25 20 23 24 26 28
12 12 10 12 6 6 2 2 8 5 1 2 11 11 19 23 24 27 26 28 27 27 22 18 20 22 20 17 26 25 23 19 25 23 19 21 17 20 18 16 20 24 29 30
6 16 18 10 9 11 11 7 2 2 3 7 9 15 20 22 24 24 26 26 25 24 18 16 21 20 19 19 25 20 23 20 22 25 21 19 20 23 19 22 21 18 17 19
7 18 9 8 5 7 6 6 9 9 5 1 8 13 17 19 21 24 24 23 24 20 15 15 18 19 17 21 20 20 27 21 24 24 18 17 18 14 21 22 24 21 14 15
10 10 6 11 11 8 10 14 11 8 6 3 10 10 14 17 20 20 20 21 21 17 13 15 16 17 15 20 20 15 17 24 29 24 17 17 17 12 10 18 23 23 14 11
15 14 16 17 19 17 16 12 15 12 8 4 3 8 13 16 17 18 19 21 19 15 11 16 16 16 13 18 15 15 16 20 22 25 15 12 18 13 18 16 16 19 17 10
24 14 20 20 15 16 13 17 17 15 14 9 4 6 12 15 17 18 18 19 18 13 10 18 14 15 11 17 14 16 16 11 14 15 17 18 13 14 13 15 12 9 14 18
16 21 23 23 21 19 21 20 22 19 16 9 3 5 10 12 14 15 17 19 18 16 14 10 14 13 11 10 14 11 10 12 13 12 10 15 11 8 10 17 19 12 7 5
15 16 22 24 25 24 29 27 23 20 22 14 8 4 8 10 10 14 16 16 9 12 8 7 4 8 10 12 18 7 6 4 4 13 9 12 17 18 14 12 13 13 10 5
21 22 21 24 28 27 30 28 21 22 20 16 11 7 7 9 12 14 14 16 12 10 9 17 15 8 8 7 17 10 8 10 8 10 7 13 11 18 14 11 4 2 4 7
32 28 24 26 25 28 28 28 25 24 21 16 13 8 6 6 11 14 16 13 13 13 11 19 21 13 7 19 16 7 9 8 11 8 12 10 14 16 17 14 2 2 2 4
25 28 27 25 23 27 28 29 30 27 22 20 15 9 4 4 9 14 17 12 10 12 10 15 18 12 13 17 13 5 10 12 13 10 13 8 8 12 10 10 6 1 2 3
19 20 23 22 24 25 25 29 30 28 26 20 16 10 4 3 8 15 12 7 22 20 21 21 20 13 13 20 5 9 9 16 13 15 11 11 9 12 11 12 8 7 4 12
19 19 18 17 20 24 25 29 29 29 26 21 16 11 5 4 11 12 18 17 22 19 16 12 15 17 20 18 11 12 7 16 18 15 13 12 11 13 6 12 10 9 7 11
18 20 20 21 25 33 29 28 29 28 26 23 19 14 9 9 7 14 11 20 20 21 10 16 26 25 19 13 13 12 12 12 16 12 13 13 9 12 12 8 9 10 13 10
13 14 15 17 24 27 30 29 29 28 24 22 19 16 13 9 10 10 18 28 23 18 18 24 22 20 16 15 16 11 13 16 16 12 16 16 9 11 10 10 12 10 8 12
12 13 15 17 19 24 28 31 30 29 27 25 22 22 19 6 14 18 28 25 26 16 11 20 19 19 15 17 13 10 14 12 19 21 14 20 14 16 14 8 9 10 11 12
4 9 15 20 21 25 31 33 29 26 29 29 21 21 21 21 18 26 28 31 16 22 15 17 18 13 8 16 20 12 15 19 20 14 18 23 19 16 24 21 15 13 12 10
12 15 18 21 27 23 21 17 22 23 16 18 25 24 25 24 18 20 27 30 21 21 20 16 19 22 27 15 12 12 19 21 20 18 17 20 23 22 19 20 17 23 14 15
Wind_Direction_500mb
6 315 300 334 334 334 316 320 337 342 348 11 349 40 184 23 40 42 19 16 14 4 4 356 353 354 351 351 345 4 357 351 354 334 335 338 347 342 340 352 352 360 353 7
307 302 21 20 294 290 323 24 338 1 333 40 21 48 35 49 51 32 17 5 5 359 354 348 357 352 350 354 360 359 359 358 336 334 8 352 352 358 13 14 19 29 18 11
288 315 108 261 258 356 6 5 20 346 358 44 346 78 60 52 30 2 7 2 356 354 351 357 356 351 355 355 350 350 358 350 344 10 347 358 6 358 4 22 23 31 30 38
283 293 290 38 23 56 16 14 349 342 27 12 80 81 70 52 23 334 349 351 348 348 350 352 356 353 355 351 356 1 355 351 9 357 356 6 7 13 28 27 25 28 33 34
271 279 297 83 33 47 354 346 36 14 19 19 68 83 59 70 71 27 359 348 355 348 351 349 360 358 348 349 2 1 349 8 2 356 5 8 2 11 13 24 31 35 39 40
279 288 283 84 96 152 226 278 36 26 23 359 351 32 64 43 29 5 1 359 356 352 351 352 3 350 339 1 358 349 5 13 351 10 22 12 22 8 20 31 36 38 40 45
290 284 59 337 44 256 271 67 5 5 30 31 54 57 56 27 4 8 2 1 357 357 358 12 15 349 353 4 358 356 8 7 358 13 15 11 4 18 15 37 34 43 50 46
246 123 45 232 346 22 40 330 333 10 50 76 58 41 26 2 2 6 359 358 358 1 1 17 14 6 4 17 356 351 21 9 5 11 14 20 14 17 27 36 32 42 55 45
32 33 32 351 70 60 30 324 17 42 71 33 4 26 359 2 7 5 360 356 360 359 4 14 3 6 12 7 351 9 19 22 9 14 18 22 5 23 21 31 41 43 36 40
355 355 329 340 325 317 205 313 46 87 97 23 26 359 4 3 8 357 356 350 359 357 5 7 351 11 14 354 346 25 24 15 5 10 4 21 7 30 9 33 48 43 49 45
255 263 272 297 56 85 105 109 238 161 74 52 18 10 6 7 2 354 349 349 358 356 3 8 356 12 15 1 360 28 17 28 359 7 12 4 19 46 40 37 46 49 44 47
304 53 360 336 48 138 191 220 242 193 182 118 350 10 6 4 354 352 350 352 357 357 3 5 2 12 13 344 9 31 23 11 359 16 32 3 18 39 39 41 36 34 35 34
314 344 352 291 294 290 276 266 218 158 133 54 42 13 10 2 355 353 354 354 355 357 2 358 4 7 10 343 20 30 40 12 21 14 12 12 36 25 354 0 25 26 30 36
261 257 267 264 260 261 243 206 157 152 158 133 54 19 14 7 359 356 355 352 354 353 358 349 352 352 12 340 16 23 0 15 37 25 44 28 28 17 5 23 22 2 18 41
260 225 250 244 248 225 199 170 170 183 196 154 77 24 23 13 4 359 354 351 350 337 331 329 347 350 355 329 9 25 18 14 40 37 26 36 20 24 27 13 19 3 356 29
243 244 234 229 232 212 196 183 199 209 177 152 141 38 31 17 7 356 355 350 351 332 329 339 334 342 358 318 2 350 27 26 34 23 8 12 15 350 357 8 9 16 34 83
231 229 231 227 227 219 201 202 212 212 166 161 166 98 51 28 13 1 358 344 347 330 309 311 358 350 354 321 345 332 5 318 335 336 342 351 351 345 344 360 25 18 41 339
237 241 248 243 234 227 216 204 199 173 160 167 164 126 70 33 12 353 347 336 348 311 274 308 323 312 350 308 315 331 359 333 287 316 330 342 346 357 0 357 39 26 339 14
242 238 244 247 239 233 215 182 180 172 170 175 177 144 92 34 2 350 334 327 323 297 272 282 313 331 339 290 308 276 271 316 316 270 303 328 351 344 359 348 322 83 135 268
243 234 237 236 225 221 185 178 173 175 179 186 177 157 132 23 355 342 351 343 300 272 292 278 308 307 287 288 311 324 330 298 320 293 269 269 303 322 337 334 321 173 256 249
231 223 225 224 219 171 173 174 179 181 190 191 186 177 183 328 329 331 348 328 288 292 274 289 286 261 267 294 281 313 274 305 297 314 282 265 278 289 302 347 318 294 268 261
230 218 223 221 201 174 176 181 188 193 195 196 192 192 223 294 311 308 316 304 316 298 292 285 288 273 270 287 252 235 252 294 287 300 266 272 293 275 287 308 297 255 216 264
238 234 230 236 197 174 178 186 198 203 206 209 211 217 241 280 290 290 293 287 297 294 285 259 257 278 273 280 212 231 254 290 263 283 289 252 249 272 286 279 290 271 251 216
249 245 231 232 185 178 183 195 206 207 214 218 216 218 235 277 285 297 291 300 301 284 270 254 279 276 270 230 217 231 251 275 269 256 294 310 225 298 291 285 285 278 248 222
234 230 219 207 199 204 199 203 210 222 215 221 228 227 263 270 241 269 294 288 294 285 280 280 287 280 267 234 236 262 275 276 257 259 276 288 269 216 262 260 284 287 271 254
253 230 242 222 222 218 215 209 207 230 227 224 227 240 247 241 262 285 296 306 292 291 266 273 293 280 268 235 241 232 267 255 275 268 252 279 278 272 238 238 243 250 262 276
260 261 255 248 232 236 244 217 203 219 235 241 249 248 246 260 252 262 275 296 294 272 274 248 257 259 261 232 234 255 259 251 254 264 269 268 284 281 276 260 249 259 261 267
Wind_Speed_850mb
36 37 25 18 35 18 20 20 14 21 28 29 25 6 20 17 40 58 47 47 47 45 46 46 46 44 42 34 31 27 27 32 34 29 35 49 42 47 47 40 28 28 25 20
18 30 17 33 44 29 15 10 15 26 21 27 33 53 67 65 61 52 45 43 43 47 50 48 40 41 37 27 24 27 27 30 28 42 40 40 37 38 43 32 24 23 25 22
19 17 3 7 17 15 18 20 21 21 27 36 30 34 46 47 47 43 38 41 45 46 48 39 39 36 29 23 25 28 30 25 37 37 32 31 32 35 35 31 27 27 28 23
19 25 28 13 13 23 18 14 20 24 16 11 27 35 34 27 29 20 23 35 37 43 41 33 34 29 22 23 24 29 25 28 33 30 29 30 32 36 32 30 30 28 26 23
16 23 22 18 28 25 29 18 24 19 26 44 21 29 23 20 15 13 23 29 35 37 37 32 29 25 22 26 27 25 25 27 30 28 27 28 29 27 29 27 25 26 25 25
18 19 28 9 5 20 34 6 21 20 14 16 24 12 18 17 17 20 26 31 36 35 34 30 26 22 26 25 26 22 26 26 30 24 25 29 28 27 25 27 26 25 26 31
20 5 15 29 7 15 17 7 14 19 21 23 18 18 12 14 20 22 30 33 35 35 29 24 23 23 24 24 22 22 26 22 31 24 24 24 27 24 25 25 28 26 28 34
19 1 8 6 10 11 8 13 10 8 13 12 8 6 12 19 23 26 29 32 32 34 24 23 19 21 25 22 20 25 23 23 30 29 27 27 29 25 23 21 24 31 30 26
3 8 7 12 20 10 10 12 9 8 10 4 3 14 17 23 25 25 28 30 29 30 25 21 18 24 21 20 20 23 24 23 34 24 24 27 28 25 25 20 23 24 26 28
12 12 10 12 6 6 2 2 8 5 1 2 11 11 19 23 24 27 26 28 27 27 22 18 20 22 20 17 26 25 23 19 25 23 19 21 17 20 18 16 20 24 29 30
6 16 18 10 9 11 11 7 2 2 3 7 9 15 20 22 24 24 26 26 25 24 18 16 21 20 19 19 25 20 23 20 22 25 21 19 20 23 19 22 21 18 17 19
7 18 9 8 5 7 6 6 9 9 5 1 8 13 17 19 21 24 24 23 24 20 15 15 18 19 17 21 20 20 27 21 24 24 18 17 18 14 21 22 24 21 14 15
10 10 6 11 11 8 10 14 11 8 6 3 10 10 14 17 20 20 20 21 21 17 13 15 16 17 15 20 20 15 17 24 29 24 17 17 17 12 10 18 23 23 14 11
15 14 16 17 19 17 16 12 15 12 8 4 3 8 13 16 17 18 19 21 19 15 11 16 16 16 13 18 15 15 16 20 22 25 15 12 18 13 18 16 16 19 17 10
24 14 20 20 15 16 13 17 17 15 14 9 4 6 12 15 17 18 18 19 18 13 10 18 14 15 11 17 14 16 16 11 14 15 17 18 13 14 13 15 12 9 14 18
16 21 23 23 21 19 21 20 22 19 16 9 3 5 10 12 14 15 17 19 18 16 14 10 14 13 11 10 14 11 10 12 13 12 10 15 11 8 10 17 19 12 7 5
15 16 22 24 25 24 29 27 23 20 22 14 8 4 8 10 10 14 16 16 9 12 8 7 4 8 10 12 18 7 6 4 4 13 9 12 17 18 14 12 13 13 10 5
21 22 21 24 28 27 30 28 21 22 20 16 11 7 7 9 12 14 14 16 12 10 9 17 15 8 8 7 17 10 8 10 8 10 7 13 11 18 14 11 4 2 4 7
32 28 24 26 25 28 28 28 25 24 21 16 13 8 6 6 11 14 16 13 13 13 11 19 21 13 7 19 16 7 9 8 11 8 12 10 14 16 17 14 2 2 2 4
25 28 27 25 23 27 28 29 30 27 22 20 15 9 4 4 9 14 17 12 10 12 10 15 18 12 13 17 13 5 10 12 13 10 13 8 8 12 10 10 6 1 2 3
19 20 23 22 24 25 25 29 30 28 26 20 16 10 4 3 8 15 12 7 22 20 21 21 20 13 13 20 5 9 9 16 13 15 11 11 9 12 11 12 8 7 4 12
19 19 18 17 20 24 25 29 29 29 26 21 16 11 5 4 11 12 18 17 22 19 16 12 15 17 20 18 11 12 7 16 18 15 13 12 11 13 6 12 10 9 7 11
18 20 20 21 25 33 29 28 29 28 26 23 19 14 9 9 7 14 11 20 20 21 10 16 26 25 19 13 13 12 12 12 16 12 13 13 9 12 12 8 9 10 13 10
13 14 15 17 24 27 30 29 29 28 24 22 19 16 13 9 10 10 18 28 23 18 18 24 22 20 16 15 16 11 13 16 16 12 16 16 9 11 10 10 12 10 8 12
12 13 15 17 19 24 28 31 30 29 27 25 22 22 19 6 14 18 28 25 26 16 11 20 19 19 15 17 13 10 14 12 19 21 14 20 14 16 14 8 9 10 11 12
4 9 15 20 21 25 31 33 29 26 29 29 21 21 21 21 18 26 28 31 16 22 15 17 18 13 8 16 20 12 15 19 20 14 18 23 19 16 24 21 15 13 12 10
12 15 18 21 27 23 21 17 22 23 16 18 25 24 25 24 18 20 27 30 21 21 20 16 19 22 27 15 12 12 19 21 20 18 17 20 23 22 19 20 17 23 14 15
Wind_Direction_850mb
6 315 300 334 334 334 316 320 337 342 348 11 349 40 184 23 40 42 19 16 14 4 4 356 353 354 351 351 345 4 357 351 354 334 335 338 347 342 340 352 352 360 353 7
307 302 21 20 294 290 323 24 338 1 333 40 21 48 35 49 51 32 17 5 5 359 354 348 357 352 350 354 360 359 359 358 336 334 8 352 352 358 13 14 19 29 18 11
288 315 108 261 258 356 6 5 20 346 358 44 346 78 60 52 30 2 7 2 356 354 351 357 356 351 355 355 350 350 358 350 344 10 347 358 6 358 4 22 23 31 30 38
283 293 290 38 23 56 16 14 349 342 27 12 80 81 70 52 23 334 349 351 348 348 350 352 356 353 355 351 356 1 355 351 9 357 356 6 7 13 28 27 25 28 33 34
271 279 297 83 33 47 354 346 36 14 19 19 68 83 59 70 71 27 359 348 355 348 351 349 360 358 348 349 2 1 349 8 2 356 5 8 2 11 13 24 31 35 39 40
279 288 283 84 96 152 226 278 36 26 23 359 351 32 64 43 29 5 1 359 356 352 351 352 3 350 339 1 358 349 5 13 351 10 22 12 22 8 20 31 36 38 40 45
290 284 59 337 44 256 271 67 5 5 30 31 54 57 56 27 4 8 2 1 357 357 358 12 15 349 353 4 358 356 8 7 358 13 15 11 4 18 15 37 34 43 50 46
246 123 45 232 346 22 40 330 333 10 50 76 58 41 26 2 2 6 359 358 358 1 1 17 14 6 4 17 356 351 21 9 5 11 14 20 14 17 27 36 32 42 55 45
32 33 32 351 70 60 30 324 17 42 71 33 4 26 359 2 7 5 360 356 360 359 4 14 3 6 12 7 351 9 19 22 9 14 18 22 5 23 21 31 41 43 36 40
355 355 329 340 325 317 205 313 46 87 97 23 26 359 4 3 8 357 356 350 359 357 5 7 351 11 14 354 346 25 24 15 5 10 4 21 7 30 9 33 48 43 49 45
255 263 272 297 56 85 105 109 238 161 74 52 18 10 6 7 2 354 349 349 358 356 3 8 356 12 15 1 360 28 17 28 359 7 12 4 19 46 40 37 46 49 44 47
304 53 360 336 48 138 191 220 242 193 182 118 350 10 6 4 354 352 350 352 357 357 3 5 2 12 13 344 9 31 23 11 359 16 32 3 18 39 39 41 36 34 35 34
314 344 352 291 294 290 276 266 218 158 133 54 42 13 10 2 355 353 354 354 355 357 2 358 4 7 10 343 20 30 40 12 21 14 12 12 36 25 354 0 25 26 30 36
261 257 267 264 260 261 243 206 157 152 158 133 54 19 14 7 359 356 355 352 354 353 358 349 352 352 12 340 16 23 0 15 37 25 44 28 28 17 5 23 22 2 18 41
260 225 250 244 248 225 199 170 170 183 196 154 77 24 23 13 4 359 354 351 350 337 331 329 347 350 355 329 9 25 18 14 40 37 26 36 20 24 27 13 19 3 356 29
243 244 234 229 232 212 196 183 199 209 177 152 141 38 31 17 7 356 355 350 351 332 329 339 334 342 358 318 2 350 27 26 34 23 8 12 15 350 357 8 9 16 34 83
231 229 231 227 227 219 201 202 212 212 166 161 166 98 51 28 13 1 358 344 347 330 309 311 358 350 354 321 345 332 5 318 335 336 342 351 351 345 344 360 25 18 41 339
237 241 248 243 234 227 216 204 199 173 160 167 164 126 70 33 12 353 347 336 348 311 274 308 323 312 350 308 315 331 359 333 287 316 330 342 346 357 0 357 39 26 339 14
242 238 244 247 239 233 215 182 180 172 170 175 177 144 92 34 2 350 334 327 323 297 272 282 313 331 339 290 308 276 271 316 316 270 303 328 351 344 359 348 322 83 135 268
243 234 237 236 225 221 185 178 173 175 179 186 177 157 132 23 355 342 351 343 300 272 292 278 308 307 287 288 311 324 330 298 320 293 269 269 303 322 337 334 321 173 256 249
231 223 225 224 219 171 173 174 179 181 190 191 186 177 183 328 329 331 348 328 288 292 274 289 286 261 267 294 281 313 274 305 297 314 282 265 278 289 302 347 318 294 268 261
230 218 223 221 201 174 176 181 188 193 195 196 192 192 223 294 311 308 316 304 316 298 292 285 288 273 270 287 252 235 252 294 287 300 266 272 293 275 287 308 297 255 216 264
238 234 230 236 197 174 178 186 198 203 206 209 211 217 241 280 290 290 293 287 297 294 285 259 257 278 273 280 212 231 254 290 263 283 289 252 249 272 286 279 290 271 251 216
249 245 231 232 185 178 183 195 206 207 214 218 216 218 235 277 285 297 291 300 301 284 270 254 279 276 270 230 217 231 251 275 269 256 294 310 225 298 291 285 285 278 248 222
234 230 219 207 199 204 199 203 210 222 215 221 228 227 263 270 241 269 294 288 294 285 280 280 287 280 267 234 236 262 275 276 257 259 276 288 269 216 262 260 284 287 271 254
253 230 242 222 222 218 215 209 207 230 227 224 227 240 247 241 262 285 296 306 292 291 266 273 293 280 268 235 241 232 267 255 275 268 252 279 278 272 238 238 243 250 262 276
260 261 255 248 232 236 244 217 203 219 235 241 249 248 246 260 252 262 275 296 294 272 274 248 257 259 261 232 234 255 259 251 254 264 269 268 284 281 276 260 249 259 261 267